Vertical_Velocity
1 0 -3 -4 -4 -11 -7 -4 -5 -10 -9 -16 1 -0 3 1 -2 1 -1 0 -0 2 0 0 0 2 3 2 7 1 1 1 -0 -13 -3 -2 -5 -7 -4 -4 1 -2 -4 -14
-5 -5 -3 -3 2 3 -5 -1 -4 0 -3 -3 -1 -3 -1 1 -2 0 -0 -0 0 0 0 -1 0 -0 3 -2 -1 6 2 -4 1 5 3 -0 1 -1 -2 -1 -2 -2 -6 -11
-0 -4 -3 -5 -1 -1 -4 0 -4 -8 -3 1 -1 0 -2 -2 -2 0 0 -0 -0 -1 0 1 -3 -2 -2 -1 1 1 -1 0 5 -0 -0 1 2 1 -0 -1 5 -4 -5 -1
-0 -3 -2 1 0 -3 -3 1 -1 2 -4 -6 -0 2 1 -1 -1 -0 -1 -0 -1 -0 0 -1 0 -1 -6 -4 -0 -0 -2 2 -0 -2 -0 1 -0 1 -0 3 -8 -2 -6 -1
-5 5 7 -6 1 -3 -5 1 -1 -1 -2 -0 1 -1 -3 1 -2 2 -3 -2 -1 -0 -3 -6 -2 1 -0 1 -3 -0 0 -3 -0 -5 -1 1 1 -0 -0 -0 -1 2 0 2
-0 -1 -4 -2 -1 1 -1 -0 -1 7 -3 -1 1 -3 -2 -1 2 -5 2 -0 0 0 -1 3 -1 0 1 -3 -2 -0 1 1 -1 -5 0 -1 5 5 0 1 -0 6 4 8
-0 -6 2 4 -0 5 5 -1 3 4 -4 1 0 1 6 0 -1 -1 -2 -0 -0 -1 -0 -4 -2 4 2 4 -4 -1 -1 1 2 -2 -1 0 12 1 -1 -5 4 -1 -4 -1
-5 -3 6 4 -6 9 -0 3 1 3 -1 1 -3 0 1 -1 -3 2 -1 -5 1 1 -1 -2 -4 -6 -4 -1 -0 1 1 1 -2 1 -1 5 -1 1 0 4 8 4 4 -1
-4 1 2 -6 8 -1 1 2 3 2 4 -6 3 1 0 -1 -0 -3 -0 2 1 -0 0 -1 -1 -1 1 -3 -5 -1 -3 1 -2 2 1 -0 7 -2 1 2 2 2 2 1
-5 2 -3 2 4 0 -0 0 -0 4 4 -2 0 2 6 2 0 -2 -1 -3 -5 0 -0 -0 -0 -1 -1 0 0 -1 -3 -3 1 -2 1 4 2 -1 2 11 6 2 1 2
-5 2 -1 -1 1 0 -1 1 1 -0 1 -4 0 2 -4 -1 -0 -0 -1 -4 -5 -2 -4 -2 -2 -1 -3 -2 1 2 0 2 1 -1 -2 1 1 -5 -9 5 -1 1 1 -0
-5 -1 2 -2 2 -3 1 0 -1 1 -0 -3 1 3 3 5 3 1 1 -1 -0 0 -3 -2 -0 -0 -1 -0 -2 -3 -4 -2 -0 0 3 3 5 3 4 4 4 -1 4 -0
-3 -1 1 1 3 -0 2 -1 -1 -1 0 -3 1 1 3 5 -1 -0 1 0 2 0 1 -2 -1 1 0 0 1 -1 -3 0 -1 -2 -3 -0 2 1 1 -1 1 0 4 1
-3 -1 -1 1 -0 1 0 2 -0 -0 1 1 -1 2 2 -1 -0 -1 -0 0 2 0 2 1 0 -1 -2 0 1 -3 1 -5 0 -2 -3 0 1 -0 2 2 4 2 4 5
-1 -0 -0 -1 2 0 1 1 -3 -2 1 -0 -2 1 1 0 0 1 -1 -2 -1 0 -1 -2 1 1 -5 0 -3 -1 1 -1 -3 -4 1 1 -4 -0 -2 -3 -4 1 1 -2
-0 -0 1 -0 -1 -0 2 2 0 0 -4 1 -2 2 0 0 0 1 -0 -1 -0 -2 -2 2 2 3 -7 -2 -0 0 3 4 4 -1 2 3 1 1 2 0 2 0 -3 -4
-0 -0 1 -0 2 -0 1 -0 -3 2 -0 1 -3 -1 -0 -2 1 1 -0 -0 -2 -2 1 -2 -1 -3 -4 -1 -1 -2 1 2 1 1 -2 0 1 -0 -0 3 3 4 8 8
1 1 1 3 5 0 1 -0 2 -2 0 1 -3 -4 -2 -4 -0 -1 1 -0 0 -1 0 -0 -2 -2 -2 -3 -1 0 1 -0 0 -2 1 3 1 -0 -1 2 -0 -1 -2 -1
1 2 4 5 4 2 3 0 1 1 -2 -3 -2 -1 -3 -4 2 1 3 1 -3 3 -2 -1 -4 -0 -1 -3 1 1 2 1 -0 -0 0 -1 -1 -0 0 -1 -2 -1 -2 -2
2 3 3 2 1 -1 5 2 4 0 -1 -2 -3 2 -4 0 -1 -2 -1 0 0 -2 -1 -2 -3 -1 -1 1 2 2 1 1 -0 -2 -5 -3 -2 -1 -1 -0 1 1 0 -1
-1 1 1 1 2 -1 2 -2 -3 -0 -4 -0 1 0 -1 3 -1 -0 3 -0 -0 -3 3 -6 -0 -2 -1 0 0 1 0 -0 -0 2 2 1 2 0 -1 -1 -0 -1 -0 -1
4 3 1 2 1 -0 -8 -1 -2 -3 -1 -1 -1 -2 -0 -3 5 1 -2 -0 -4 -1 1 -6 -0 -4 1 0 0 -0 1 -0 -1 0 0 0 0 -1 1 1 -0 -0 1 0
1 1 1 -2 -0 -9 -5 -1 -3 -2 1 -1 -4 -5 0 -1 1 0 -2 -4 1 -1 -4 1 -2 2 0 -0 -0 -1 0 1 1 -0 0 1 1 1 0 -1 0 0 0 1
1 0 -5 -5 -3 0 1 1 1 2 0 -2 1 -1 3 0 -3 1 -4 2 -5 -3 -2 -1 -1 -0 0 -0 -0 -0 -1 -0 0 1 0 0 0 0 0 1 1 0 -1 -1
-2 -2 -1 -1 3 2 1 1 1 1 0 -0 -0 1 -0 -1 -2 -0 -2 -5 -0 1 1 0 1 0 0 -1 -1 -0 1 -0 -0 0 -0 -0 -0 0 1 -0 -0 1 1 -0
-2 -6 -3 3 -3 -1 -3 -2 -1 2 1 2 1 -0 -3 0 0 -4 1 -3 2 2 1 4 1 -1 2 0 -0 0 1 0 0 0 0 0 -0 -1 -0 1 0 -0 1 1
-3 -1 -0 5 2 4 2 2 1 1 1 -0 -1 -4 3 -1 -2 -1 0 1 2 2 3 -1 1 1 1 0 -0 0 0 0 1 1 0 -0 0 1 1 0 0 0 0 1
Height
1533 1529 1525 1520 1516 1510 1504 1498 1496 1489 1483 1483 1487 1490 1489 1486 1479 1475 1476 1474 1474 1473 1469 1461 1453 1453 1458 1461 1454 1446 1444 1437 1434 1430 1427 1427 1425 1426 1438 1453 1450 1467 1470 1462
1534 1530 1525 1520 1516 1511 1506 1501 1496 1492 1488 1494 1494 1490 1486 1484 1480 1478 1475 1476 1477 1476 1475 1473 1469 1465 1465 1464 1462 1460 1456 1434 1431 1428 1429 1429 1427 1429 1427 1439 1446 1454 1458 1459
1534 1530 1526 1521 1516 1512 1509 1505 1502 1495 1492 1494 1495 1494 1487 1483 1479 1478 1476 1476 1474 1472 1471 1472 1471 1467 1464 1463 1463 1463 1456 1443 1435 1427 1431 1435 1433 1428 1427 1426 1429 1434 1450 1442
1535 1530 1526 1522 1517 1513 1511 1508 1505 1503 1501 1495 1496 1495 1489 1483 1480 1478 1477 1476 1477 1478 1475 1473 1471 1469 1466 1463 1461 1463 1467 1458 1452 1446 1441 1434 1431 1426 1426 1422 1419 1426 1430 1435
1534 1530 1525 1522 1517 1512 1510 1509 1507 1504 1500 1496 1495 1491 1488 1484 1483 1483 1478 1479 1477 1478 1485 1481 1480 1475 1472 1468 1463 1463 1466 1464 1456 1447 1434 1431 1428 1433 1438 1423 1428 1420 1425 1448
1533 1529 1525 1521 1516 1512 1510 1508 1506 1504 1498 1495 1495 1491 1486 1484 1484 1478 1477 1477 1477 1476 1474 1473 1470 1467 1464 1465 1467 1465 1466 1459 1454 1451 1442 1436 1431 1456 1451 1459 1467 1459 1437 1467
1532 1528 1523 1519 1515 1511 1509 1506 1505 1502 1497 1495 1491 1489 1486 1483 1481 1480 1477 1476 1476 1475 1472 1468 1463 1459 1457 1458 1457 1462 1466 1463 1459 1456 1445 1450 1466 1466 1462 1468 1476 1474 1471 1475
1531 1526 1522 1518 1514 1509 1506 1504 1503 1500 1496 1493 1488 1486 1483 1480 1477 1477 1476 1477 1476 1473 1470 1470 1466 1461 1455 1451 1454 1456 1458 1461 1470 1460 1441 1460 1470 1475 1477 1475 1479 1480 1475 1474
1529 1524 1519 1515 1511 1507 1503 1502 1499 1498 1496 1490 1488 1484 1480 1479 1477 1477 1475 1475 1473 1472 1471 1473 1478 1472 1465 1459 1453 1453 1450 1449 1457 1447 1449 1439 1480 1479 1476 1479 1478 1482 1480 1476
1527 1522 1517 1512 1508 1504 1501 1499 1497 1496 1492 1488 1487 1484 1473 1475 1477 1479 1476 1475 1473 1472 1472 1472 1475 1475 1466 1466 1471 1467 1463 1462 1455 1456 1449 1478 1484 1479 1474 1470 1490 1487 1485 1483
1524 1519 1515 1510 1506 1501 1499 1497 1495 1494 1491 1487 1486 1485 1482 1479 1479 1480 1478 1478 1477 1476 1484 1483 1482 1482 1474 1476 1482 1482 1487 1483 1475 1469 1471 1478 1487 1480 1483 1493 1488 1485 1483 1482
1521 1517 1513 1508 1504 1500 1497 1495 1493 1492 1491 1488 1486 1484 1484 1483 1481 1480 1479 1479 1478 1477 1481 1484 1482 1473 1472 1478 1486 1489 1492 1500 1495 1496 1495 1499 1496 1495 1495 1491 1490 1489 1486 1483
1518 1514 1510 1506 1502 1498 1496 1494 1492 1491 1489 1487 1485 1484 1484 1483 1481 1481 1481 1479 1478 1477 1477 1477 1475 1471 1475 1479 1490 1497 1498 1496 1499 1497 1499 1499 1499 1498 1496 1494 1492 1488 1485 1481
1515 1511 1507 1504 1500 1497 1495 1493 1491 1490 1489 1488 1486 1484 1484 1483 1482 1480 1479 1478 1477 1476 1476 1475 1475 1475 1481 1491 1494 1498 1504 1501 1506 1504 1500 1495 1496 1496 1494 1491 1489 1486 1485 1482
1511 1507 1504 1502 1499 1496 1493 1492 1490 1489 1491 1487 1484 1484 1484 1483 1481 1479 1478 1477 1475 1474 1475 1476 1479 1481 1487 1495 1498 1506 1506 1507 1510 1508 1504 1503 1500 1498 1496 1493 1489 1485 1481 1478
1507 1504 1501 1499 1498 1495 1493 1491 1490 1488 1487 1486 1485 1484 1482 1482 1479 1479 1478 1476 1475 1476 1478 1481 1484 1487 1488 1499 1508 1509 1507 1506 1505 1504 1502 1501 1500 1498 1496 1493 1491 1488 1485 1482
1503 1500 1498 1497 1495 1494 1493 1492 1490 1487 1486 1486 1484 1482 1482 1481 1479 1479 1478 1478 1477 1478 1481 1485 1489 1490 1491 1503 1513 1509 1507 1505 1504 1503 1500 1499 1498 1496 1494 1491 1487 1484 1482 1479
1498 1495 1494 1494 1492 1491 1490 1488 1487 1486 1485 1485 1487 1485 1482 1482 1480 1480 1479 1479 1479 1481 1484 1489 1492 1495 1499 1511 1510 1508 1506 1504 1503 1502 1501 1499 1497 1495 1491 1488 1484 1480 1476 1473
1492 1490 1490 1490 1489 1489 1488 1486 1486 1485 1487 1485 1488 1492 1492 1484 1482 1480 1480 1479 1483 1485 1487 1492 1495 1504 1511 1512 1509 1508 1506 1505 1503 1501 1500 1498 1496 1494 1490 1487 1484 1480 1477 1473
1487 1486 1487 1486 1486 1486 1487 1485 1485 1484 1485 1487 1490 1491 1490 1488 1484 1482 1481 1480 1484 1495 1494 1494 1502 1514 1511 1510 1509 1508 1506 1505 1503 1500 1498 1497 1495 1492 1489 1487 1484 1482 1479 1475
1486 1485 1484 1484 1483 1484 1484 1484 1486 1488 1491 1492 1492 1492 1491 1488 1488 1484 1483 1483 1485 1498 1493 1498 1515 1519 1511 1510 1509 1507 1506 1504 1502 1501 1499 1497 1495 1492 1489 1486 1484 1481 1478 1475
1485 1485 1483 1483 1483 1483 1485 1492 1490 1491 1496 1494 1493 1493 1491 1489 1487 1485 1485 1485 1489 1496 1494 1502 1518 1513 1511 1510 1508 1506 1505 1503 1501 1499 1497 1495 1493 1491 1488 1486 1483 1481 1478 1475
1482 1483 1483 1483 1486 1490 1496 1498 1497 1496 1496 1496 1494 1493 1491 1489 1489 1488 1488 1492 1495 1493 1503 1511 1514 1512 1511 1509 1507 1505 1503 1502 1500 1498 1496 1493 1491 1489 1487 1484 1482 1480 1477 1474
1483 1483 1488 1492 1498 1499 1501 1501 1500 1499 1497 1496 1494 1493 1492 1491 1491 1491 1494 1494 1495 1507 1515 1516 1513 1512 1511 1509 1507 1505 1502 1500 1498 1496 1494 1492 1490 1487 1486 1483 1481 1478 1476 1473
1485 1487 1500 1502 1503 1503 1503 1502 1500 1499 1497 1495 1494 1494 1494 1494 1495 1496 1496 1501 1508 1509 1513 1513 1513 1512 1510 1508 1506 1504 1501 1499 1497 1495 1493 1491 1489 1486 1484 1482 1480 1477 1475 1473
1493 1500 1503 1504 1504 1506 1504 1502 1501 1499 1496 1496 1496 1496 1499 1503 1504 1504 1508 1512 1513 1515 1514 1513 1512 1510 1509 1507 1505 1503 1500 1498 1497 1495 1493 1491 1489 1486 1484 1482 1480 1477 1475 1473
1503 1510 1510 1509 1510 1510 1508 1505 1502 1499 1498 1499 1499 1504 1508 1508 1509 1512 1513 1517 1518 1516 1515 1513 1511 1509 1507 1505 1503 1501 1499 1497 1495 1494 1492 1491 1489 1487 1485 1482 1480 1477 1475 1473